This is the latest recevied weather packets stored in our database for station/object WX4LTG. If no packets are shown the sender has not sent any weather packets the latest 10 day(s).
| Time | Temp. | Humidity | Pressure | Rain* | Wind** | Luminosity | Snow |
|---|---|---|---|---|---|---|---|
| 1777747454 | 30.56° C | 22% | 1013.6 hPa | 0 mm | - | 732 W/m² | - |
| 1777747151 | 30.56° C | 22% | 1013.8 hPa | 0 mm | - | 727 W/m² | - |
| 1777746847 | 30.56° C | 23% | 1014 hPa | 0 mm | - | 723 W/m² | - |
| 1777746542 | 30.56° C | 23% | 1014.1 hPa | 0 mm | - | 718 W/m² | - |
| 1777746238 | 30° C | 23% | 1014 hPa | 0 mm | - | 711 W/m² | - |
| 1777745934 | 30.56° C | 23% | 1014 hPa | 0 mm | - | 706 W/m² | - |
| 1777745634 | 30.56° C | 24% | 1014.1 hPa | 0 mm | - | 699 W/m² | - |
| 1777745331 | 30.56° C | 24% | 1014.3 hPa | 0 mm | - | 692 W/m² | - |
| 1777745028 | 30° C | 25% | 1014.2 hPa | 0 mm | - | 685 W/m² | - |
| 1777744724 | 30.56° C | 24% | 1014.3 hPa | 0 mm | - | 677 W/m² | - |
| 1777744418 | 29.44° C | 25% | 1014.6 hPa | 0 mm | - | 671 W/m² | - |
| 1777744116 | 28.89° C | 25% | 1014.4 hPa | 0 mm | - | 663 W/m² | - |
| 1777743812 | 30° C | 26% | 1014.6 hPa | 0 mm | - | 656 W/m² | - |
| 1777743509 | 30° C | 26% | 1014.3 hPa | 0 mm | - | 645 W/m² | - |
| 1777743206 | 29.44° C | 26% | 1014.6 hPa | 0 mm | - | 633 W/m² | - |
| 1777742904 | 29.44° C | 26% | 1014.7 hPa | 0 mm | - | 622 W/m² | - |
| 1777742601 | 28.89° C | 27% | 1014.6 hPa | 0 mm | - | 615 W/m² | - |
| 1777742296 | 29.44° C | 27% | 1014.6 hPa | 0 mm | - | 604 W/m² | - |
| 1777741994 | 29.44° C | 27% | 1014.6 hPa | 0 mm | - | 594 W/m² | - |
| 1777741691 | 28.89° C | 29% | 1014.7 hPa | 0 mm | - | 584 W/m² | - |
| 1777741386 | 28.89° C | 29% | 1014.7 hPa | 0 mm | - | 573 W/m² | - |
| 1777741083 | 29.44° C | 28% | 1014.8 hPa | 0 mm | - | 562 W/m² | - |
| 1777740780 | 28.33° C | 28% | 1014.6 hPa | 0 mm | - | 549 W/m² | - |
| 1777740477 | 28.33° C | 29% | 1014.8 hPa | 0 mm | - | 539 W/m² | - |
| 1777740174 | 28.89° C | 28% | 1014.8 hPa | 0 mm | - | 525 W/m² | - |
* Rain latest hour (hover to see other rain measurements)
** Current wind speed in m/s (hover to see current wind gust speed)